Home   Weather   Erfurt   Past weeks

Flag for Germany Past Weather in Erfurt, Thuringia, Germany — Yesterday and Last 2 Weeks

Now
45 °F

Clear.


Feels Like: 34 °F
Forecast: 34 / 42 °F
Wind: 32 mph from Southwest

Location: Erfurt-Bindersleben

Current Time: Feb 24, 2017 at 12:36:14 am

Latest Report: Feb 24, 2017 at 12:20 am


Visibility: 10 mi

Pressure: 29.24 "Hg

Humidity: 57%

Dew Point: 30 °F

Location of ErfurtLocation

Past Weather in Erfurt — Graph

°F

Erfurt Temperature Yesterday

Maximum temperature yesterday: 52 °F (at 2:50 pm)
Minimum temperature yesterday: 43 °F (at 12:20 am)
Average temperature yesterday: 46 °F

High & Low Weather Summary for the Past Weeks

 TemperatureHumidityPressure
High54 °F (Feb 16, 3:50 pm)100% (Feb 9, 8:50 am)30.54 "Hg (Feb 9, 8:50 am)
Low21 °F (Feb 9, 7:20 am)57% (Feb 23, 11:20 pm)29.24 "Hg (Feb 23, 10:20 pm)
Average36 °F88%30.17 "Hg
* Reported Feb 8 11:20 pm — Feb 23 11:20 pm, Erfurt, Weather by CustomWeather, © 2017

Note: Actual official high and low records may vary slightly from our data, if they occured in-between our weather recording intervals... More about our weather records

Advertising

Erfurt Weather History for the Previous 24 Hours

Scroll right to see more
 ConditionsComfort  
Time TempWeatherWind HumidityBarometerVisibility
11:20 pm
Thu, Feb 23
45 °FClear.36 mph57%29.24 "Hg10 mi
10:50 pm45 °FClear.36 mph61%29.24 "Hg10 mi
10:20 pm45 °FClear.33 mph61%29.24 "Hg10 mi
9:50 pm45 °FClear.31 mph66%29.27 "Hg10 mi
9:20 pm45 °FPassing clouds.39 mph66%29.27 "HgN/A
8:50 pm46 °FClear.31 mph62%29.27 "Hg10 mi
8:20 pm45 °FClear.32 mph66%29.27 "Hg10 mi
7:50 pm46 °FPassing clouds.29 mph66%29.27 "HgN/A
7:20 pm43 °FPassing clouds.18 mph93%29.27 "HgN/A
6:50 pm48 °FLight rain. Partly cloudy.29 mph71%29.27 "HgN/A
6:20 pm48 °FLight rain. Passing clouds.31 mph71%29.27 "HgN/A
5:50 pm48 °FPassing clouds.25 mph71%29.27 "HgN/A
5:20 pm46 °FPartly sunny.22 mph76%29.27 "HgN/A
4:50 pm48 °FLight rain. Partly sunny.24 mph66%29.30 "HgN/A
4:20 pm48 °FPartly sunny.25 mph66%29.33 "HgN/A
3:50 pm50 °FPartly sunny.25 mph62%29.33 "HgN/A
3:20 pm50 °FPartly sunny.22 mph67%29.36 "HgN/A
2:50 pm52 °FPartly sunny.17 mph67%29.36 "HgN/A
2:20 pm50 °FPartly sunny.18 mph71%29.39 "HgN/A
1:50 pm48 °FPartly sunny.22 mph76%29.39 "HgN/A
1:20 pm48 °FPartly sunny.22 mph76%29.42 "HgN/A
12:50 pm46 °FPartly sunny.23 mph82%29.45 "HgN/A
12:20 pm46 °FPartly sunny.20 mph82%29.47 "HgN/A
11:50 am46 °FPartly sunny.18 mph87%29.50 "HgN/A
11:20 am46 °FPartly sunny.22 mph87%29.50 "HgN/A
10:50 am46 °FPartly sunny.22 mph87%29.53 "HgN/A
10:20 am46 °FPartly sunny.22 mph87%29.53 "HgN/A
9:50 am46 °FPartly sunny.21 mph87%29.53 "HgN/A
9:20 am46 °FPartly sunny.17 mph87%29.53 "HgN/A
8:50 am46 °FBroken clouds.18 mph93%29.56 "HgN/A
8:20 am46 °FPartly sunny.18 mph87%29.56 "HgN/A
7:50 am46 °FPartly sunny.16 mph87%29.59 "HgN/A
7:20 am46 °FLight rain. Broken clouds.18 mph93%29.59 "HgN/A
6:50 am46 °FPartly cloudy.17 mph93%29.59 "HgN/A
6:20 am48 °FPartly cloudy.21 mph87%29.59 "HgN/A
5:50 am46 °FPassing clouds.18 mph93%29.59 "HgN/A
5:20 am48 °FLight rain. Overcast.18 mph87%29.59 "HgN/A
4:50 am48 °FDrizzle. Overcast.22 mph87%29.59 "HgN/A
4:20 am48 °FDrizzle. Overcast.21 mph87%29.59 "HgN/A
3:50 am48 °FDrizzle. Overcast.22 mph87%29.59 "HgN/A
3:20 am46 °FPassing clouds.18 mph93%29.59 "HgN/A
2:50 am45 °FPassing clouds.5 mph93%29.62 "HgN/A
2:20 am43 °FDrizzle. Fog.7 mph100%29.62 "Hg2 mi
1:50 am43 °FPassing clouds.8 mph100%29.62 "Hg6 mi
1:20 am43 °FDrizzle. Mostly cloudy.10 mph100%29.62 "Hg5 mi
12:50 am43 °FDrizzle. Mostly cloudy.9 mph100%29.62 "HgN/A
12:20 am43 °FDrizzle. Mostly cloudy.9 mph100%29.65 "HgN/A
Weather by CustomWeather, © 2017

See weather overviewHow to use our weather pages